Regional Weather Roundup
Issued by NWS

Home | Current Version | Previous Version | Text Only | Print | Product List | Glossary On
Versions: 1 2 3 4 5 6 7 8 9 10 11 12 13 14 15 16 17 18 19 20 21 22 23 24 25 26 27 28 29 30 31 32 33 34 35 36 37 38 39 40 41 42 43 44 45 46 47 48 49 50
000
ASUS43 KMKX 300811
RWRWI

WISCONSIN REGIONAL WEATHER ROUNDUP
NATIONAL WEATHER SERVICE MILWAUKEE/SULLIVAN WI
300 AM CDT TUE SEP 30 2014

NOTE: "FAIR" INDICATES FEW OR NO CLOUDS BELOW 12,000 FEET WITH NO
SIGNIFICANT WEATHER AND/OR OBSTRUCTIONS TO VISIBILITY.

WIZ001-002-006>008-014>016-023>028-300900-
NORTHWEST WISCONSIN

CITY           SKY/WX    TMP DP  RH WIND       PRES   REMARKS
SUPERIOR ARPT  CLOUDY    43  38  83 SE5       30.18S
ASHLAND        CLOUDY    42  39  89 E3        30.17S
HAYWARD        CLOUDY    41  38  89 E6        30.15S
SIREN          CLOUDY    42  39  89 E8        30.14F
CUMBERLAND     CLOUDY    39  36  87 E6        30.14S WCI  35
RICE LAKE      CLOUDY    41  37  86 NE7       30.16F
CHETEK         CLOUDY    41  38  90 NE7       30.15F
LADYSMITH      CLOUDY    41  37  84 E7        30.16S
EAU CLAIRE     CLOUDY    43  37  79 E8        30.13S
MENOMONIE      CLOUDY    44  39  82 NE6       30.14R
NEW RICHMOND   CLOUDY    41  38  89 NE8       30.13F
OSCEOLA        CLOUDY    43  41  93 NE9       30.16F
$$

WIZ003>005-009-010-017-018-300900-
NORTH CENTRAL WISCONSIN

CITY           SKY/WX    TMP DP  RH WIND       PRES   REMARKS
MANITOWISH WTR CLOUDY    37  37 100 E6        30.13F WCI  32
ARBOR VITAE    CLOUDY    39  37  92 NE5       30.13F
WOODRUFF       CLOUDY    39  37  92 NE5       30.13F
RHINELANDER    CLOUDY    38  36  92 VRB3      30.13S
EAGLE RIVER    CLOUDY    38  37  98 N5        30.13R WCI  34
LAND O LAKES   CLOUDY    38  37  98 N8        30.14R FOG     WCI  32
PHILLIPS       CLOUDY    38  36  92 NE8       30.13F WCI  32
TOMAHAWK       CLOUDY    38  35  90 N6        30.13F WCI  33
MEDFORD        CLOUDY    38  36  91 NE5       30.13S WCI  35
MERRILL        CLOUDY    39  37  90 NE7       30.13S WCI  34
$$

WIZ029-030-035-036-043>047-300900-
CENTRAL WISCONSIN

CITY           SKY/WX    TMP DP  RH WIND       PRES   REMARKS
WAUSAU         CLOUDY    40  35  83 E8        30.11S WCI  34
MOSINEE        CLOUDY    37  36  93 N9        30.13S WCI  31
MARSHFIELD     CLOUDY    42  37  82 NE7       30.12R
STEVENS POINT  CLOUDY    38  35  86 NE6       30.13S WCI  34
WAUPACA        CLOUDY    44  39  83 N8        30.12S
WAUTOMA        NOT AVBL
WISC RAPIDS    CLOUDY    43  36  76 NE7       30.13S
CAMP DOUGLAS   CLOUDY    44  44 100 E9        30.11S
$$

WIZ011>013-019>022-031-037>040-048>050-300900-
NORTHEAST WISCONSIN

CITY           SKY/WX    TMP DP  RH WIND       PRES   REMARKS
ANTIGO         CLOUDY    38  36  92 N8G16     30.11S WCI  32
SHAWANO        CLOUDY    44  39  81 N13G20    30.12S
OCONTO         CLOUDY    43  39  86 N6        30.11S
STURGEON BAY   NOT AVBL
GREEN BAY      CLOUDY    43  39  86 N14       30.11S
MANITOWOC      NOT AVBL
APPLETON       CLOUDY    41  36  81 N12G18    30.11S
CLINTONVILLE   CLOUDY    41  37  87 NE10      30.11F
OSHKOSH        CLOUDY    44  39  82 N14       30.09F
$$

WIZ032>034-041-042-053>061-300900-
SOUTHWEST WISCONSIN

CITY           SKY/WX    TMP DP  RH WIND       PRES   REMARKS
LA CROSSE      CLOUDY    48  42  80 NE6       30.10F
SPARTA         CLOUDY    46  42  88 E7        30.11S
VIROQUA        CLOUDY    46  46 100 NE7       30.08S
BOSCOBEL       NOT AVBL
PRAIRIE DU CHI CLOUDY    53  46  77 NE7       30.07R
PLATTEVILLE    CLOUDY    50  48  90 NE8       30.07S
$$

WIZ056-057-062-063-064-067-068-300900-
SOUTH CENTRAL WISCONSIN

CITY           SKY/WX    TMP DP  RH WIND       PRES   REMARKS
REEDSBURG      CLOUDY    45  40  85 NE10      30.10R
BARABOO/DELLS  CLOUDY    45  40  85 NE5       30.10R
LONE ROCK      CLOUDY    53  45  74 E13       30.08S
MINERAL POINT  CLOUDY    50  45  81 NE9       30.07S
MADISON        CLOUDY    47  42  83 NE9       30.09S
MIDDLETON      CLOUDY    47  43  84 NE8       30.09S
WATERTOWN      CLOUDY    45  42  90 NE8       30.08S
MONROE         CLOUDY    46  46 100 NE16      30.06S
JANESVILLE     CLOUDY    50  43  76 NE6       30.06S
$$

WIZ051-052-058>065-066-070>072-300900-
SOUTHEAST WISCONSIN

CITY           SKY/WX    TMP DP  RH WIND       PRES   REMARKS
MILWAUKEE      CLOUDY    46  40  79 N9        30.08R
WAUKESHA       CLOUDY    43  39  87 NE7       30.09S
MILWAUKEE/TIMM CLOUDY    45  36  70 N10       30.09S
RACINE         CLOUDY    48  44  86 N15G22    30.08R
BURLINGTON     CLOUDY    45  41  86 N8        30.07S
KENOSHA        CLOUDY    48  43  82 N8        30.07R
FOND DU LAC    CLOUDY    44  38  79 NE16      30.10S
SHEBOYGAN      CLOUDY    44  39  82 N14       30.08
WEST BEND      CLOUDY    43  37  81 N7        30.08S
JUNEAU         CLOUDY    44  40  86 NE8       30.09S
$$

LSZ147-162-300900-
LAKE SUPERIOR

STATION/POSITION TIME  TEMP    WIND        PRES    WAVE
                       AIR SEA DIR/SP/G            HT/PER
                 (UTC) (F)     (DEG/KT/KT) (MB)    (FT/S)
W MID LAKE BUOY  0750   44 50   60/ 12/ 16 1022.1F   4/ 6
DEVILS ISLAND    0800   44      70/  9/ 11 1022.2F
SAXON HARBOR     0740   44      90/  3/  7 1021.3F
$$

LMZ867-665-643>646-300900-
LAKE MICHIGAN

STATION/POSITION TIME  TEMP    WIND        PRES    WAVE
                       AIR SEA DIR/SP/G            HT/PER
                 (UTC) (F)     (DEG/KT/KT) (MB)    (FT/S)
CHAMBERS ISLAND  0700   46     340/ 19/ 24 1019.3R
S GREEN BAY BUOY 0600   47                 1020.2
N MID LAKE BUOY  0750   47 58  360/ 19/ 25 1017.5F   5/ 5
NORTHPORT PIER   0700   47     360/ 20/ 24 1018.6S
KEWAUNEE LAKESHO 0700   45     350/  7/ 12 1017.9R
SHEBOYGAN LAKESH 0800   46 54  350/ 19/ 22 1019.0F
PORT WASHINGTON  0700          350/  9/ 15 1019.3R
ATWATER BUOY     0800   49     360/ 17/ 21 1019.1F
MILWAUKEE LAKESH 0700          350/ 16/ 23   N/A
S MID LAKE BUOY  0750   52 62  350/ 17/ 21 1016.8R   7/ 7
KENOSHA   LAKESH 0800          350/ 20/ 23 1017.9R
$$

TC  - TEMPERATURE IN CELSIUS
VSB - VISIBILITY IN STATUTE MILES
WCI - WIND CHILL INDEX
HX  - HEAT INDEX



USA.gov is the U.S. government's official web portal to all federal, state and local government web resources and services.